Station RPLV2 - 8632837 - Rappahannock Light, VA Image indicating link to RSS feed of recent meteorological observations for station RPLV2


Conditions at RPLV2 as of
(9:18 pm EDT on 04/20/2024)
0118 GMT on 04/21/2024:
     

Click on the graph icon in the table below to see a time series plot of the last five days of that observation.

5-day plot - Wind Direction Wind Direction (WDIR): SE ( 140 deg true )
5-day plot - Wind Speed Wind Speed (WSPD): 7.0 kts
5-day plot - Wind Gust Wind Gust (GST): 7.0 kts
5-day plot - Atmospheric Pressure Atmospheric Pressure (PRES):29.96 in
5-day plot - Wind Speed at 10 Meters Wind Speed at 10 meters (WSPD10M): 5.8 kts
5-day plot - Wind Speed at 20 Meters Wind Speed at 20 meters (WSPD20M): 7.8 kts
5-day plot -  Wind Speed, Wind Gust and Atmospheric Pressure Combined plot of Wind Speed, Gust, and Air Pressure
NOS Water Level Observation Network Water Level
Previous observations
TIME
(EDT)
5-day plot - Wind Direction
WDIR
 
5-day plot - Wind Speed
WSPD
kts
5-day plot - Wind Gust
GST
kts
5-day plot - Wave Height
WVHT
ft
5-day plot - Dominant Wave Period
DPD
sec
5-day plot - Average Wave Period
APD
sec
5-day plot - Mean Wave Direction
MWD
 
5-day plot - Atmospheric Pressure
PRES
in
5-day plot - Pressure Tendency
PTDY
in
5-day plot - Air Temperature
ATMP
°F
5-day plot - Water Temperature
WTMP
°F
5-day plot - Dew Point
DEWP
°F
5-day plot - Salinity
SAL
psu
5-day plot - Visibility
VIS
nmi
5-day plot - Tide (above MLLW)
TIDE
ft
2024-04-20 09:12 pm SE 7.0 7.0----29.96-------
2024-04-20 09:06 pm SE 6.0 6.0----29.96-------
2024-04-20 09:00 pmESE 2.9 4.1----29.96+0.01------
2024-04-20 08:54 pm E 2.9 2.9----29.96-------
2024-04-20 08:48 pm E 1.9 1.9----29.96-------
2024-04-20 08:42 pmESE 1.9 2.9----29.96-------
2024-04-20 08:36 pm E 1.9 2.9----29.96-------
2024-04-20 08:30 pmENE 2.9 2.9----29.96-------
2024-04-20 08:24 pm E 1.9 2.9----29.96-------
2024-04-20 08:18 pm NE 4.1 5.1------------
2024-04-20 08:12 pm E 1.9 1.9------------
2024-04-20 08:06 pmESE 1.9 1.9------------
2024-04-20 08:00 pm- 0.0 1.9----29.96+0.00------
2024-04-20 07:54 pmESE 1.9 2.9----29.96-------
2024-04-20 07:48 pm SE 2.9 2.9----29.96-------
2024-04-20 07:42 pmSSE 2.9 4.1----29.96-------
2024-04-20 07:36 pmSSE 4.1 4.1----29.95-------
2024-04-20 07:30 pm SE 4.1 4.1----29.95-------
2024-04-20 07:24 pm SE 2.9 4.1----29.95-------
2024-04-20 07:00 pmESE 2.9 2.9----29.94-0.01------
2024-04-20 06:54 pmESE 2.9 2.9----29.94-------
2024-04-20 06:48 pmESE 2.9 2.9----29.94-------
2024-04-20 06:42 pm E 2.9 2.9----29.94-------
2024-04-20 06:36 pm E 2.9 2.9----29.95-------
2024-04-20 06:30 pm E 2.9 4.1----29.95-------
2024-04-20 06:24 pmENE 4.1 4.1----29.94-------
2024-04-20 06:18 pmENE 4.1 4.1----29.95-------
2024-04-20 06:12 pm E 2.9 4.1----29.94-------
2024-04-20 06:06 pm E 2.9 4.1----29.95-------
2024-04-20 06:00 pm-------29.95-0.03------
2024-04-20 05:54 pm-------29.95-------
2024-04-20 05:48 pmNNE 5.1 5.1----29.95-------
2024-04-20 05:42 pmNNE 5.1 6.0----29.96-------
2024-04-20 05:36 pmNNE 5.1 6.0----29.95-------
2024-04-20 05:30 pmNNE 6.0 6.0----29.95-------
2024-04-20 05:24 pmNNE 5.1 6.0----29.96-------
2024-04-20 05:18 pmNNE 6.0 7.0----29.95-------
2024-04-20 05:12 pmNNE 7.0 7.0----29.95-------
2024-04-20 05:06 pmNNE 7.0 8.0----29.95-------
2024-04-20 05:00 pm N 7.0 8.0----29.95-0.05------
2024-04-20 04:54 pmNNE 7.0 8.0----29.95-------
2024-04-20 04:48 pmNNE 6.0 7.0----29.95-------
2024-04-20 04:42 pm N 6.0 7.0----29.95-------
2024-04-20 04:36 pm N 6.0 7.0----29.95-------
2024-04-20 04:30 pm N 6.0 6.0----29.95-------
2024-04-20 04:24 pm N 6.0 7.0----29.95-------
2024-04-20 04:18 pm N 7.0 7.0------------
2024-04-20 04:12 pm N 6.0 7.0------------
2024-04-20 04:06 pm N 6.0 7.0------------
2024-04-20 04:00 pm-------29.95-0.06------
2024-04-20 03:54 pm-------29.96-------
2024-04-20 03:48 pm N 5.1 5.1----29.96-------
2024-04-20 03:42 pmNNE 4.1 5.1----29.96-------
2024-04-20 03:36 pmNNE 4.1 5.1----29.96-------
2024-04-20 03:30 pmNNE 4.1 5.1----29.96-------
2024-04-20 03:24 pmNNE 5.1 5.1----29.96-------
2024-04-20 03:18 pmNNE 5.1 6.0----29.96-------
2024-04-20 03:12 pmNNE 5.1 6.0----29.97-------
2024-04-20 03:06 pmNNE 6.0 7.0----29.97-------
2024-04-20 03:00 pmNNE 6.0 7.0----29.98-0.05------
2024-04-20 02:54 pmNNE 7.0 8.0----29.98-------
2024-04-20 02:48 pmNNE 8.0 8.0----29.98-------
2024-04-20 02:42 pm N 8.0 8.9----29.99-------
2024-04-20 02:36 pm N 8.9 9.9----29.99-------
2024-04-20 02:30 pm N 9.9 9.9------------
2024-04-20 02:24 pm N 9.9 11.1------------
2024-04-20 02:18 pm N 8.9 9.9----30.00-------
2024-04-20 02:12 pm N 9.9 11.1----30.00-------
2024-04-20 02:06 pm N 11.1 11.1----30.00-------
2024-04-20 02:00 pm N 9.9 11.1----30.01-0.04------
2024-04-20 01:54 pm N 9.9 11.1----30.01-------
2024-04-20 01:48 pm N 8.9 9.9----30.01-------
2024-04-20 01:42 pm N 8.9 11.1----30.01-------
2024-04-20 01:36 pm N 8.0 8.9----30.01-------
2024-04-20 01:30 pm N 8.0 8.9----30.01-------
2024-04-20 01:24 pm N 7.0 8.9----30.01-------
2024-04-20 01:18 pm N 7.0 8.0----30.01-------
2024-04-20 01:12 pmNNW 6.0 8.0----30.01-------
2024-04-20 01:06 pmNNW 6.0 7.0----30.02-------
2024-04-20 01:00 pmNNW 7.0 8.0----30.02-0.01------
2024-04-20 12:54 pmNNW 8.0 8.9----30.02-------
2024-04-20 12:48 pmNNW 8.0 8.9----30.02-------
2024-04-20 12:42 pm NW 8.0 9.9----30.02-------
2024-04-20 12:36 pmNNW 8.9 9.9----30.02-------
2024-04-20 12:30 pm NW 8.9 9.9----30.02-------
2024-04-20 12:24 pm NW 8.9 9.9----30.02-------
2024-04-20 12:18 pmNNW 8.0 9.9----30.02-------
2024-04-20 12:12 pm NW 8.0 8.9----30.03-------
2024-04-20 12:06 pmNNW 8.0 8.9----30.03-------
2024-04-20 12:00 pmNNW 5.1 7.0----30.02-0.02------
2024-04-20 11:54 amNNW 5.1 6.0----30.03-------
2024-04-20 11:48 am NW 5.1 7.0----30.03-------
2024-04-20 11:42 am NW 7.0 8.0----30.03-------
2024-04-20 11:36 am NW 7.0 8.0----30.03-------
2024-04-20 11:30 am NW 8.0 8.9----30.03-------
2024-04-20 11:24 am NW 8.0 8.9----30.03-------
2024-04-20 11:18 am NW 7.0 8.0----30.04-------
2024-04-20 11:12 amWNW 7.0 7.0----30.04-------
2024-04-20 11:06 amWNW 7.0 8.0----30.04-------
2024-04-20 11:00 amWNW 7.0 8.0----30.04+0.02------
2024-04-20 10:54 amWNW 6.0 6.0----30.04-------
2024-04-20 10:48 amWNW 6.0 7.0----30.04-------
2024-04-20 10:42 am NW 6.0 7.0----30.03-------
2024-04-20 10:36 am NW 7.0 8.0----30.04-------
2024-04-20 10:30 am NW 5.1 6.0----30.03-------
2024-04-20 10:24 amWNW 5.1 5.1----30.04-------
2024-04-20 10:18 amWNW 2.9 5.1----30.04-------
2024-04-20 10:12 am NW 2.9 4.1----30.04-------
2024-04-20 10:06 am NW 4.1 5.1----30.03-------
2024-04-20 10:00 am NW 4.1 5.1----30.03+0.00------
2024-04-20 09:54 amWNW 2.9 4.1----30.03-------
2024-04-20 09:48 am NW 1.9 1.9----30.03-------
2024-04-20 09:42 am- 0.0 1.0----30.03-------
2024-04-20 09:36 amWNW 1.0 2.9----30.03-------
2024-04-20 09:30 am W 2.9 4.1----30.04-------
2024-04-20 09:24 am W 2.9 5.1----30.04-------
2024-04-20 09:18 am W 4.1 6.0----30.04-------
2024-04-20 09:12 am W 6.0 7.0----30.05-------
2024-04-20 09:06 amWNW 6.0 6.0----30.04-------
2024-04-20 09:00 amWNW 5.1 6.0----30.04+0.01------
2024-04-20 08:54 amWNW 5.1 5.1----30.04-------
2024-04-20 08:48 am W 4.1 4.1----30.04-------
2024-04-20 08:42 am W 1.9 2.9----30.03-------
2024-04-20 08:36 am NW 1.9 2.9----30.03-------
2024-04-20 08:30 am W 1.9 4.1----30.03-------
2024-04-20 08:24 am SW 4.1 4.1----30.03-------
2024-04-20 08:18 am SW 2.9 4.1----30.03-------
2024-04-20 08:12 amSSW 1.9 2.9----30.03-------
2024-04-20 08:06 amSSW 2.9 4.1----30.03-------
2024-04-20 08:00 am S 1.9 2.9----30.03+0.01------
2024-04-20 07:54 amSSW 2.9 4.1----30.03-------
2024-04-20 07:48 am SW 2.9 5.1----30.04-------
2024-04-20 07:42 am SW 5.1 5.1----30.05-------
2024-04-20 07:36 am SW 2.9 4.1----30.04-------
2024-04-20 07:30 am S 4.1 5.1----30.04-------
2024-04-20 07:24 am S 4.1 5.1----30.04-------
2024-04-20 07:18 am S 4.1 6.0----30.03-------
2024-04-20 07:12 am S 6.0 7.0----30.03-------
2024-04-20 07:06 amSSE 5.1 6.0----30.03-------
2024-04-20 07:00 amSSE 6.0 7.0----30.03+0.00------
2024-04-20 06:54 am SE 5.1 7.0----30.03-------
2024-04-20 06:48 amESE 6.0 7.0----30.02-------
2024-04-20 06:42 am SE 4.1 6.0----30.02-------
2024-04-20 06:36 am SE 5.1 6.0----30.02-------
2024-04-20 06:30 amESE 5.1 6.0----30.02-------
2024-04-20 06:24 amESE 4.1 5.1----30.03-------
2024-04-20 06:18 am SE 2.9 5.1----30.03-------
2024-04-20 06:12 am S 2.9 4.1----30.04-------
2024-04-20 06:06 am S 2.9 4.1----30.04-------
2024-04-20 06:00 am SE 4.1 5.1----30.03+0.00------
2024-04-20 05:54 am SE 4.1 4.1----30.03-------
2024-04-20 05:48 amESE 1.9 2.9----30.03-------
2024-04-20 05:42 amESE 2.9 4.1----30.03-------
2024-04-20 05:36 amESE 1.9 2.9----30.03-------
2024-04-20 05:30 amESE 1.9 2.9----30.03-------
2024-04-20 05:24 amESE 1.9 2.9----30.03-------
2024-04-20 05:18 am- 0.0 4.1----30.03-------
2024-04-20 05:12 amESE 1.9 5.1----30.02-------
2024-04-20 05:06 amESE 4.1 5.1----30.02-------
2024-04-20 05:00 amESE 5.1 6.0----30.02-0.04------
2024-04-20 04:54 am E 4.1 5.1----30.02-------
2024-04-20 04:48 am E 2.9 4.1----30.02-------
2024-04-20 04:42 am E 2.9 4.1----30.02-------
2024-04-20 04:36 am E 1.0 2.9----30.03-------
2024-04-20 04:30 amESE 1.9 2.9----30.03-------
2024-04-20 04:24 am E 2.9 2.9----30.03-------
2024-04-20 04:18 am SE 1.9 2.9----30.03-------
2024-04-20 04:12 am SE 2.9 2.9----30.03-------
2024-04-20 04:06 amSSE 2.9 5.1----30.03-------
2024-04-20 04:00 am-------30.03-0.03------
2024-04-20 03:54 am-------30.03-------
2024-04-20 03:48 amSSE 5.1 7.0----30.03-------
2024-04-20 03:42 am SE 5.1 6.0----30.03-------
2024-04-20 03:36 am SE 5.1 6.0----30.03-------
2024-04-20 03:30 amESE 5.1 6.0----30.03-------
2024-04-20 03:24 amESE 5.1 6.0----30.02-------
2024-04-20 03:18 amESE 4.1 5.1----30.03-------
2024-04-20 03:12 amESE 4.1 4.1----30.03-------
2024-04-20 03:06 amESE 4.1 5.1----30.03-------
2024-04-20 03:00 amESE 5.1 6.0----30.03-0.04------
2024-04-20 02:54 amESE 4.1 5.1----30.03-------
2024-04-20 02:48 amESE 4.1 5.1----30.03-------
2024-04-20 02:42 amESE 4.1 5.1----30.03-------
2024-04-20 02:36 amESE 4.1 5.1----30.04-------
2024-04-20 02:30 am SE 2.9 5.1----30.04-------
2024-04-20 02:24 amESE 2.9 4.1----30.04-------
2024-04-20 02:18 am SE 2.9 4.1----30.05-------
2024-04-20 02:12 amESE 2.9 4.1----30.05-------
2024-04-20 02:06 am SE 4.1 5.1----30.05-------
2024-04-20 02:00 am SE 4.1 5.1----30.05-0.03------
2024-04-20 01:54 am SE 4.1 4.1----30.06-------
2024-04-20 01:48 am SE 4.1 6.0----30.06-------
2024-04-20 01:42 amESE 5.1 6.0----30.06-------
2024-04-20 01:36 am SE 5.1 6.0----30.06-------
2024-04-20 01:30 am SE 5.1 7.0----30.06-------
2024-04-20 01:24 amSSE 5.1 6.0----30.06-------
2024-04-20 01:18 amSSE 5.1 6.0----30.06-------
2024-04-20 01:12 am SE 5.1 7.0----30.06-------
2024-04-20 01:06 amSSE 6.0 7.0----30.06-------
2024-04-20 01:00 amSSE 6.0 7.0----30.06-0.01------
2024-04-20 12:54 amSSE 5.1 6.0----30.06-------
2024-04-20 12:48 amESE 4.1 6.0----30.06-------
2024-04-20 12:42 am SE 5.1 7.0----30.06-------
2024-04-20 12:36 am SE 6.0 8.0----30.06-------
2024-04-20 12:30 am SE 7.0 8.9----30.06-------
2024-04-20 12:24 am SE 7.0 8.9----30.06-------
2024-04-20 12:18 am SE 6.0 8.0----30.06-------
2024-04-20 12:12 amESE 7.0 8.0----30.06-------
2024-04-20 12:06 amESE 5.1 7.0----30.07-------
2024-04-20 12:00 amESE 6.0 7.0----30.07-0.02------
2024-04-19 11:54 pmESE 8.0 8.0----30.07-------
2024-04-19 11:48 pmESE 5.1 7.0----30.07-------
2024-04-19 11:42 pm E 5.1 6.0----30.07-------
2024-04-19 11:36 pmESE 6.0 8.0----30.07-------
2024-04-19 11:30 pm E 5.1 7.0----30.07-------
2024-04-19 11:24 pmESE 6.0 8.0----30.07-------
2024-04-19 11:18 pm E 6.0 7.0----30.08-------
2024-04-19 11:12 pm E 5.1 8.0----30.07-------
2024-04-19 11:06 pm E 5.1 6.0----30.08-------
2024-04-19 11:00 pmESE 6.0 8.0----30.08+0.01------
2024-04-19 10:54 pmESE 8.0 11.1----30.08-------
2024-04-19 10:48 pmESE 11.1 13.0----30.08-------
2024-04-19 10:42 pm SE 8.9 9.9----30.08-------
2024-04-19 10:36 pm SE 8.0 8.9----30.09-------
2024-04-19 10:30 pm SE 8.0 9.9----30.08-------
2024-04-19 10:24 pmESE 8.9 9.9----30.09-------
2024-04-19 10:18 pmESE 8.0 13.0----30.09-------
2024-04-19 10:12 pmESE 12.0 14.0----30.08-------
2024-04-19 10:06 pmESE 11.1 13.0----30.08-------
2024-04-19 10:00 pmESE 12.0 14.0----30.08-0.01------
2024-04-19 09:54 pmESE 9.9 11.1----30.08-------
2024-04-19 09:48 pmESE 8.9 9.9----30.09-------
2024-04-19 09:42 pm E 8.0 9.9----30.09-------
2024-04-19 09:36 pm E 8.0 9.9----30.09-------
2024-04-19 09:30 pm E 8.0 9.9----30.09-------
2024-04-19 09:24 pm E 8.0 9.9----30.09-------
2024-04-19 09:18 pm E 8.9 11.1----30.09-------
2024-04-19 09:12 pmESE 8.9 9.9----30.09-------
2024-04-19 09:06 pmESE 8.0 8.9----30.09-------
2024-04-19 09:00 pm E 8.0 8.9----30.09+0.01------
2024-04-19 08:54 pm E 8.0 13.0----30.09-------